Kinston, NC

9:31 AM EDT on April 24, 2017 (GMT -0400)
Kinston Regional Jetport / Stallings Field

Weather History for KISO - March, 2013

Change the Weather History Date:

Wednesday, March 27, 2013

  Actual Average Record
Temperature  
Mean Temperature 44 °F -  
Max Temperature 55 °F 66 °F 85 °F (1991)
Min Temperature 33 °F 46 °F 23 °F (2014)
Degree Days  
Heating Degree Days 21    
Moisture  
Dew Point 25 °F    
Average Humidity 54    
Maximum Humidity 75    
Minimum Humidity 26    
Precipitation  
Precipitation 0.00 in - - ()
Sea Level Pressure  
Sea Level Pressure 30.14 in    
Wind  
Wind Speed 4 mph (WNW)    
Max Wind Speed 15 mph    
Max Gust Speed 24 mph    
Visibility 10 miles    
Events      
Averages and records for this station are not official NWS values.
T = Trace of Precipitation, MM = Missing Value Source: NWS Daily Summary

Daily Weather History Graph

Daily Weather History Graph

Search for Another Location

Airport or City:

Trip Planner

Search our weather history database for the weather conditions in past years. The results will help you decide how hot, cold, wet, or windy it might be!

Date:

Astronomy

Mar. 27, 2013 Rise Set
Actual Time 7:03 AM EDT 7:28 PM EDT
Civil Twilight 6:38 AM EDT 7:53 PM EDT
Nautical Twilight 6:08 AM EDT 8:23 PM EDT
Astronomical Twilight 5:38 AM EDT 8:53 PM EDT
Moon 8:06 PM EDT (3/27) 6:55 AM EDT (3/27)
Length of Visible Light 13h 15m
Length of Day
12h 24m
Full, 100% of the Moon is Illuminated
Mar 27
Full
Apr 3
Last Quarter
Apr 10
New
Apr 18
First Quarter
Apr 25
Full

Hourly Weather History & Observations

Time (EDT) Temp. Windchill Dew Point Humidity Pressure Visibility Wind Dir Wind Speed Gust Speed Precip Events Conditions
12:15 AM 41.5 °F - 28.9 °F 61% 30.09 in 10.0 mi Calm Calm - N/A   Scattered Clouds
12:35 AM 40.5 °F - 28.9 °F 64% 30.09 in 10.0 mi Calm Calm - N/A   Clear
12:55 AM 40.1 °F - 29.1 °F 65% 30.09 in 10.0 mi Calm Calm - N/A   Clear
1:15 AM 40.6 °F 37.5 °F 28.4 °F 62% 30.10 in 10.0 mi West 4.6 mph - N/A   Clear
1:35 AM 39.9 °F 36.7 °F 28.2 °F 63% 30.11 in 10.0 mi West 4.6 mph - N/A   Clear
1:55 AM 39.4 °F - 27.9 °F 63% 30.11 in 10.0 mi Calm Calm - N/A   Clear
2:15 AM 39.4 °F - 27.5 °F 62% 30.11 in 10.0 mi Calm Calm - N/A   Clear
2:35 AM 38.7 °F - 27.5 °F 64% 30.10 in 10.0 mi Calm Calm - N/A   Clear
2:55 AM 38.5 °F - 27.3 °F 64% 30.10 in 10.0 mi Calm Calm - N/A   Clear
3:15 AM 37.8 °F - 27.3 °F 66% 30.09 in 10.0 mi Calm Calm - N/A   Clear
3:35 AM 37.4 °F - 27.3 °F 67% 30.09 in 10.0 mi Calm Calm - N/A   Clear
3:55 AM 36.1 °F 33.5 °F 27.1 °F 70% 30.09 in 10.0 mi West 3.5 mph - N/A   Clear
4:15 AM 36.0 °F 33.3 °F 27.3 °F 71% 30.10 in 10.0 mi West 3.5 mph - N/A   Clear
4:35 AM 35.8 °F 33.0 °F 27.1 °F 71% 30.10 in 10.0 mi West 3.5 mph - N/A   Clear
4:55 AM 35.6 °F - 27.1 °F 71% 30.11 in 10.0 mi Calm Calm - N/A   Clear
5:15 AM 35.1 °F 31.0 °F 27.0 °F 72% 30.12 in 10.0 mi West 4.6 mph - N/A   Clear
5:35 AM 34.3 °F 31.4 °F 27.0 °F 74% 30.12 in 10.0 mi WSW 3.5 mph - N/A   Clear
5:55 AM 34.7 °F 31.8 °F 27.0 °F 73% 30.12 in 10.0 mi West 3.5 mph - N/A   Clear
6:15 AM 34.7 °F 31.8 °F 27.0 °F 73% 30.13 in 10.0 mi West 3.5 mph - N/A   Clear
6:35 AM 34.7 °F 31.8 °F 27.0 °F 73% 30.13 in 10.0 mi West 3.5 mph - N/A   Clear
6:55 AM 34.7 °F 30.6 °F 27.0 °F 73% 30.14 in 10.0 mi West 4.6 mph - N/A   Clear
6:56 AM 33.8 °F 29.6 °F 26.6 °F 75% 30.14 in 10.0 mi West 4.6 mph - N/A   Clear
7:56 AM 35.6 °F 31.7 °F 28.4 °F 75% 30.16 in 10.0 mi West 4.6 mph - N/A   Clear
8:56 AM 41.0 °F 34.7 °F 28.4 °F 61% 30.17 in 10.0 mi NW 10.4 mph 17.3 mph N/A   Clear
9:56 AM 46.4 °F 40.4 °F 26.6 °F 46% 30.19 in 10.0 mi NNW 13.8 mph 18.4 mph N/A   Clear
11:56 AM 48.2 °F - 23.0 °F 37% 30.18 in 10.0 mi NNW 12.7 mph 20.7 mph N/A   Clear
12:56 PM 51.8 °F - 21.2 °F 30% 30.15 in 10.0 mi WNW 12.7 mph 17.3 mph N/A   Clear
1:56 PM 53.6 °F - 21.2 °F 28% 30.14 in 10.0 mi WNW 13.8 mph 20.7 mph N/A   Clear
2:56 PM 55.4 °F - 21.2 °F 26% 30.12 in 10.0 mi NW 15.0 mph 24.2 mph N/A   Scattered Clouds
3:56 PM 51.8 °F - 21.2 °F 30% 30.11 in 10.0 mi NNW 11.5 mph 21.9 mph N/A   Scattered Clouds
4:56 PM 53.6 °F - 21.2 °F 28% 30.12 in 10.0 mi West 10.4 mph 19.6 mph N/A   Scattered Clouds
5:56 PM 53.6 °F - 21.2 °F 28% 30.12 in 10.0 mi NW 11.5 mph 17.3 mph N/A   Scattered Clouds
6:56 PM 51.8 °F - 21.2 °F 30% 30.14 in 10.0 mi NW 9.2 mph - N/A   Scattered Clouds
7:56 PM 46.4 °F 44.3 °F 21.2 °F 37% 30.16 in 10.0 mi NW 4.6 mph - N/A   Clear
8:56 PM 44.6 °F 42.2 °F 21.2 °F 39% 30.19 in 10.0 mi WNW 4.6 mph - N/A   Clear
9:15 PM 44.6 °F 41.4 °F 22.5 °F 42% 30.19 in 10.0 mi NW 5.8 mph - N/A   Clear
9:35 PM 44.1 °F 40.8 °F 22.5 °F 42% 30.20 in 10.0 mi WNW 5.8 mph - N/A   Clear
9:55 PM 44.1 °F 40.8 °F 22.1 °F 42% 30.21 in 10.0 mi WNW 5.8 mph - N/A   Clear
9:56 PM 44.6 °F 42.2 °F 21.2 °F 39% 30.21 in 10.0 mi NW 4.6 mph - N/A   Clear
10:15 PM 43.7 °F 39.7 °F 22.1 °F 42% 30.22 in 10.0 mi WNW 6.9 mph - N/A   Clear
10:35 PM 43.2 °F 40.5 °F 21.9 °F 43% 30.22 in 10.0 mi WNW 4.6 mph - N/A   Clear
10:55 PM 42.6 °F 40.9 °F 22.1 °F 44% 30.22 in 10.0 mi WNW 3.5 mph - N/A   Clear
11:15 PM 41.7 °F 38.8 °F 22.1 °F 46% 30.22 in 10.0 mi WNW 4.6 mph - N/A   Clear
11:35 PM 40.5 °F 38.4 °F 22.6 °F 49% 30.21 in 10.0 mi WNW 3.5 mph - N/A   Clear
11:55 PM 40.8 °F - 22.3 °F 48% 30.21 in 10.0 mi Calm Calm - N/A   Clear